,,Stat6,,Stat2,,Stat8,,Stat9,,Stat10,,Wind1,,Wind1,
time,status,PA1M_AVG,status,PR1M_SUM,status,RH1M_AVG,status,SR1M_AVG,status,TA1M_AVG,status,W1dAve1m,status,W1sAve1m,
2004-05-29, 00:00:01,VALID,918.312,VALID,0,VALID,98.192,VALID,-0.0679233,VALID,19.888,VALID,82,VALID,0.513317,
2004-05-29, 00:01:00,VALID,918.314,VALID,0,VALID,98.2098,VALID,-0.101885,VALID,19.9002,VALID,117,VALID,0.625363,
2004-05-29, 00:02:01,VALID,918.336,VALID,0,VALID,98.1602,VALID,-0.101885,VALID,19.9263,VALID,122,VALID,0.778201,
2004-05-29, 00:03:01,VALID,918.346,VALID,0,VALID,98.1043,VALID,-0.0509425,VALID,19.9558,VALID,123,VALID,0.664249,
2004-05-29, 00:04:01,VALID,918.355,VALID,0,VALID,98.0572,VALID,-0.101885,VALID,19.9742,VALID,125,VALID,0.732558,
2004-05-29, 00:05:00,VALID,918.358,VALID,0,VALID,97.9517,VALID,0.0339617,VALID,19.999,VALID,126,VALID,0.660528,
2004-05-29, 00:06:00,VALID,918.35,VALID,0,VALID,97.8589,VALID,0,VALID,20.0055,VALID,126,VALID,0.63121,
2004-05-29, 00:07:00,VALID,918.348,VALID,0,VALID,97.8271,VALID,0.0169808,VALID,20.0152,VALID,127,VALID,0.669618,
2004-05-29, 00:08:01,VALID,918.341,VALID,0,VALID,97.7432,VALID,0.0509425,VALID,20.0219,VALID,127,VALID,0.55971,
2004-05-29, 00:09:00,VALID,918.323,VALID,0,VALID,97.7304,VALID,0.0339617,VALID,20.0149,VALID,126,VALID,0.443266,
2004-05-29, 00:10:00,VALID,918.32,VALID,0,VALID,97.6719,VALID,0,VALID,20.0216,VALID,126,VALID,0.763889,
2004-05-29, 00:11:00,VALID,918.296,VALID,0,VALID,97.5753,VALID,0.0169808,VALID,20.0087,VALID,122,VALID,0.898438,
2004-05-29, 00:12:00,VALID,918.279,VALID,0,VALID,97.6821,VALID,0.0339617,VALID,19.999,VALID,97,VALID,0.850781,
2004-05-29, 00:13:00,VALID,918.275,VALID,0,VALID,97.7063,VALID,0.0849042,VALID,19.9695,VALID,96,VALID,0.848474,
2004-05-29, 00:14:00,VALID,918.273,VALID,0,VALID,97.7991,VALID,0.0509425,VALID,19.9568,VALID,92,VALID,0.459794,
2004-05-29, 00:15:01,VALID,918.282,VALID,0,VALID,97.8665,VALID,0,VALID,19.9638,VALID,87,VALID,0.450267,
2004-05-29, 00:16:01,VALID,918.285,VALID,0,VALID,97.8449,VALID,0.0339617,VALID,19.9436,VALID,87,VALID,0.438058,
2004-05-29, 00:17:00,VALID,918.3,VALID,0,VALID,97.8589,VALID,0.0169808,VALID,19.9578,VALID,87,VALID,0.553163,
2004-05-29, 00:18:00,VALID,918.309,VALID,0,VALID,97.8614,VALID,0.0169808,VALID,19.957,VALID,87,VALID,0.198686,
2004-05-29, 00:19:00,VALID,918.304,VALID,0,VALID,97.8449,VALID,0.0339617,VALID,19.9605,VALID,87,VALID,0.225497,
2004-05-29, 00:20:00,VALID,918.315,VALID,0,VALID,97.8118,VALID,0.0169808,VALID,19.9603,VALID,87,VALID,0.169837,
2004-05-29, 00:21:01,VALID,918.299,VALID,0,VALID,97.7813,VALID,0,VALID,19.9707,VALID,87,VALID,0.143787,
2004-05-29, 00:22:01,VALID,918.282,VALID,0,VALID,97.8245,VALID,0.0169808,VALID,19.9737,VALID,87,VALID,0.194949,
2004-05-29, 00:23:01,VALID,918.286,VALID,0,VALID,97.7101,VALID,0.0169808,VALID,19.9702,VALID,87,VALID,0.218395,
2004-05-29, 00:24:01,VALID,918.271,VALID,0,VALID,97.5982,VALID,0,VALID,19.9538,VALID,86,VALID,0.426067,
2004-05-29, 00:25:01,VALID,918.263,VALID,0,VALID,97.4265,VALID,0.0339617,VALID,19.9347,VALID,53,VALID,0.584985,
2004-05-29, 00:26:01,VALID,918.268,VALID,0,VALID,97.5461,VALID,0.0339617,VALID,19.9022,VALID,52,VALID,0.506669,
2004-05-29, 00:27:01,VALID,918.265,VALID,0,VALID,97.6325,VALID,0.0339617,VALID,19.8925,VALID,52,VALID,0.391369,
2004-05-29, 00:28:01,VALID,918.249,VALID,0,VALID,97.7228,VALID,0.0339617,VALID,19.8897,VALID,52,VALID,0.286585,
2004-05-29, 00:29:01,VALID,918.253,VALID,0,VALID,97.7889,VALID,0.0169808,VALID,19.8793,VALID,52,VALID,0.133168,
2004-05-29, 00:30:00,VALID,918.248,VALID,0,VALID,97.7902,VALID,0,VALID,19.8967,VALID,52,VALID,0.353379,
2004-05-29, 00:31:00,VALID,918.247,VALID,0,VALID,97.8347,VALID,0,VALID,19.8733,VALID,52,VALID,0.383594,
2004-05-29, 00:32:01,VALID,918.24,VALID,0,VALID,97.8767,VALID,0,VALID,19.8738,VALID,69,VALID,0.25651,
2004-05-29, 00:33:01,VALID,918.243,VALID,0,VALID,97.911,VALID,0,VALID,19.8736,VALID,102,VALID,0.550327,
2004-05-29, 00:34:01,VALID,918.244,VALID,0,VALID,97.9504,VALID,0,VALID,19.8445,VALID,134,VALID,0.441656,
2004-05-29, 00:35:00,VALID,918.243,VALID,0,VALID,97.9466,VALID,0,VALID,19.8512,VALID,126,VALID,0.369141,
2004-05-29, 00:36:00,VALID,918.237,VALID,0,VALID,97.9199,VALID,-0.0169808,VALID,19.8416,VALID,133,VALID,0.37407,
2004-05-29, 00:37:01,VALID,918.247,VALID,0,VALID,97.8741,VALID,0,VALID,19.8257,VALID,140,VALID,0.428472,
2004-05-29, 00:38:01,VALID,918.256,VALID,0,VALID,97.9288,VALID,0.0169808,VALID,19.8093,VALID,138,VALID,0.335211,
2004-05-29, 00:39:01,VALID,918.243,VALID,0,VALID,97.9606,VALID,0.0509425,VALID,19.7896,VALID,131,VALID,0.529447,
2004-05-29, 00:40:01,VALID,918.23,VALID,0,VALID,97.9123,VALID,0,VALID,19.7899,VALID,121,VALID,0.443132,
2004-05-29, 00:41:01,VALID,918.235,VALID,0,VALID,97.9542,VALID,0.0509425,VALID,19.7738,VALID,118,VALID,0.186612,
2004-05-29, 00:42:01,VALID,918.203,VALID,0,VALID,98.0216,VALID,0,VALID,19.7641,VALID,115,VALID,0.349609,
2004-05-29, 00:43:00,VALID,918.176,VALID,0,VALID,98.1221,VALID,0,VALID,19.7738,VALID,107,VALID,0.397693,
2004-05-29, 00:44:01,VALID,918.171,VALID,0,VALID,98.2175,VALID,0,VALID,19.77,VALID,106,VALID,0.380952,
2004-05-29, 00:45:00,VALID,918.157,VALID,0,VALID,98.276,VALID,0.0169808,VALID,19.7964,VALID,106,VALID,0.423363,
2004-05-29, 00:46:01,VALID,918.157,VALID,0,VALID,98.2772,VALID,0,VALID,19.8028,VALID,106,VALID,0.0885417,
2004-05-29, 00:47:00,VALID,918.18,VALID,0,VALID,98.2798,VALID,0,VALID,19.8065,VALID,106,VALID,0.119234,
2004-05-29, 00:48:01,VALID,918.19,VALID,0,VALID,98.2289,VALID,0.0169808,VALID,19.8192,VALID,106,VALID,0.0232639,
2004-05-29, 00:49:01,VALID,918.2,VALID,0,VALID,98.1869,VALID,0.0169808,VALID,19.8257,VALID,106,VALID,0.292383,
2004-05-29, 00:50:01,VALID,918.212,VALID,0,VALID,98.1971,VALID,0.0169808,VALID,19.8123,VALID,107,VALID,0.321039,
2004-05-29, 00:51:01,VALID,918.215,VALID,0,VALID,98.1513,VALID,0.0339617,VALID,19.8319,VALID,106,VALID,0.400036,
2004-05-29, 00:52:01,VALID,918.211,VALID,0,VALID,98.0471,VALID,0.0509425,VALID,19.8147,VALID,99,VALID,0.420703,
2004-05-29, 00:53:01,VALID,918.19,VALID,0,VALID,97.691,VALID,0.0679233,VALID,19.7867,VALID,46,VALID,0.771484,
2004-05-29, 00:54:01,VALID,918.164,VALID,0,VALID,97.466,VALID,0,VALID,19.7218,VALID,42,VALID,0.733445,
2004-05-29, 00:55:01,VALID,918.137,VALID,0,VALID,97.5422,VALID,0.0679233,VALID,19.6605,VALID,42,VALID,0.871289,
2004-05-29, 00:56:01,VALID,918.101,VALID,0,VALID,97.7699,VALID,0,VALID,19.5954,VALID,41,VALID,0.860709,
2004-05-29, 00:57:01,VALID,918.077,VALID,0,VALID,98.1488,VALID,0.0339617,VALID,19.5736,VALID,38,VALID,0.944949,
2004-05-29, 00:58:01,VALID,918.056,VALID,0,VALID,98.1221,VALID,0,VALID,19.5125,VALID,37,VALID,0.930043,
2004-05-29, 00:59:01,VALID,918.046,VALID,0,VALID,98.3612,VALID,0.0339617,VALID,19.467,VALID,34,VALID,1.16825,
2004-05-29, 01:00:01,VALID,918.032,VALID,0,VALID,98.5824,VALID,0.0169808,VALID,19.4511,VALID,39,VALID,1.15011,
2004-05-29, 01:01:01,VALID,918.009,VALID,0,VALID,98.7032,VALID,0.0169808,VALID,19.4251,VALID,39,VALID,0.850291,
2004-05-29, 01:02:01,VALID,917.991,VALID,0,VALID,98.8316,VALID,-0.0169808,VALID,19.4122,VALID,40,VALID,0.699405,
2004-05-29, 01:03:01,VALID,917.973,VALID,0,VALID,98.9258,VALID,0.0169808,VALID,19.3995,VALID,48,VALID,0.556362,
2004-05-29, 01:04:01,VALID,917.958,VALID,0,VALID,99.0491,VALID,0.0339617,VALID,19.3963,VALID,72,VALID,0.591933,
2004-05-29, 01:05:01,VALID,917.937,VALID,0,VALID,99.25,VALID,-0.0849042,VALID,19.4168,VALID,76,VALID,0.212843,
2004-05-29, 01:06:00,VALID,917.925,VALID,0,VALID,99.189,VALID,-0.101885,VALID,19.43,VALID,76,VALID,0.38186,
2004-05-29, 01:07:00,VALID,917.91,VALID,0,VALID,99.1305,VALID,-0.101885,VALID,19.4464,VALID,76,VALID,0.472656,
2004-05-29, 01:08:00,VALID,917.893,VALID,0,VALID,99.086,VALID,-0.0849042,VALID,19.4429,VALID,76,VALID,0.591146,
2004-05-29, 01:09:00,VALID,917.863,VALID,0,VALID,99.0186,VALID,-0.101885,VALID,19.4399,VALID,68,VALID,0.406597,
2004-05-29, 01:10:00,VALID,917.834,VALID,0,VALID,98.735,VALID,-0.118866,VALID,19.4044,VALID,64,VALID,0.481831,
2004-05-29, 01:11:00,VALID,917.836,VALID,0,VALID,98.5061,VALID,-0.101885,VALID,19.3592,VALID,61,VALID,0.482143,
2004-05-29, 01:12:00,VALID,917.813,VALID,0,VALID,98.5939,VALID,-0.101885,VALID,19.3264,VALID,58,VALID,0.437322,
2004-05-29, 01:13:00,VALID,917.811,VALID,0,VALID,98.824,VALID,-0.101885,VALID,19.3232,VALID,58,VALID,0.546693,
2004-05-29, 01:14:00,VALID,917.802,VALID,0,VALID,99.0656,VALID,-0.0849042,VALID,19.3689,VALID,57,VALID,0.600694,
2004-05-29, 01:15:00,VALID,917.794,VALID,0,VALID,98.9575,VALID,-0.101885,VALID,19.3525,VALID,43,VALID,0.601563,
2004-05-29, 01:16:00,VALID,917.793,VALID,0,VALID,98.6663,VALID,-0.0849042,VALID,19.314,VALID,38,VALID,0.521484,
2004-05-29, 01:17:00,VALID,917.785,VALID,0,VALID,98.7121,VALID,-0.101885,VALID,19.2817,VALID,38,VALID,0.469638,
2004-05-29, 01:18:00,VALID,917.767,VALID,0,VALID,98.7922,VALID,-0.0849042,VALID,19.2658,VALID,38,VALID,0.443216,
2004-05-29, 01:19:00,VALID,917.757,VALID,0,VALID,98.7019,VALID,-0.118866,VALID,19.204,VALID,38,VALID,0.471989,
2004-05-29, 01:20:00,VALID,917.731,VALID,0,VALID,98.7172,VALID,-0.0849042,VALID,19.172,VALID,38,VALID,0.444754,
2004-05-29, 01:21:00,VALID,917.707,VALID,0,VALID,98.5074,VALID,-0.101885,VALID,19.1173,VALID,36,VALID,0.50957,
2004-05-29, 01:22:00,VALID,917.669,VALID,0,VALID,98.3116,VALID,-0.101885,VALID,19.0594,VALID,33,VALID,0.595084,
2004-05-29, 01:23:00,VALID,917.641,VALID,0,VALID,98.5227,VALID,-0.0849042,VALID,19.0324,VALID,18,VALID,0.770647,
2004-05-29, 01:24:00,VALID,917.609,VALID,0,VALID,98.8431,VALID,-0.101885,VALID,19.0304,VALID,14,VALID,0.801758,
2004-05-29, 01:25:00,VALID,917.581,VALID,0,VALID,99.4039,VALID,-0.101885,VALID,19.1081,VALID,13,VALID,0.765434,
2004-05-29, 01:26:00,VALID,917.558,VALID,0,VALID,99.5158,VALID,-0.101885,VALID,19.1369,VALID,14,VALID,0.544922,
2004-05-29, 01:27:00,VALID,917.559,VALID,0,VALID,99.1966,VALID,-0.101885,VALID,19.1146,VALID,14,VALID,0.427148,
2004-05-29, 01:28:00,VALID,917.547,VALID,0,VALID,98.8901,VALID,-0.101885,VALID,19.0594,VALID,14,VALID,0.353924,
2004-05-29, 01:29:00,VALID,917.524,VALID,0,VALID,98.9118,VALID,-0.118866,VALID,19.0463,VALID,13,VALID,0.378049,
2004-05-29, 01:30:00,VALID,917.514,VALID,0,VALID,99.0644,VALID,-0.101885,VALID,19.0694,VALID,13,VALID,0.238839,
2004-05-29, 01:31:00,VALID,917.516,VALID,0,VALID,99.1585,VALID,-0.101885,VALID,19.0915,VALID,13,VALID,0.224564,
2004-05-29, 01:32:00,VALID,917.507,VALID,0,VALID,99.1318,VALID,-0.101885,VALID,19.0984,VALID,13,VALID,0.108594,
2004-05-29, 01:33:00,VALID,917.518,VALID,0,VALID,99.0071,VALID,-0.101885,VALID,19.0954,VALID,13,VALID,0,
2004-05-29, 01:34:00,VALID,917.527,VALID,0,VALID,99.0987,VALID,-0.0849042,VALID,19.0984,VALID,13,VALID,0,
2004-05-29, 01:35:00,VALID,917.519,VALID,0,VALID,99.2144,VALID,-0.0169808,VALID,19.1101,VALID,13,VALID,0,
2004-05-29, 01:36:00,VALID,917.508,VALID,0,VALID,99.2971,VALID,0,VALID,19.1419,VALID,13,VALID,0,
2004-05-29, 01:37:00,VALID,917.525,VALID,0,VALID,99.0936,VALID,-0.0169808,VALID,19.1427,VALID,13,VALID,0.00109012,
2004-05-29, 01:38:00,VALID,917.52,VALID,0,VALID,98.7744,VALID,-0.0169808,VALID,19.1034,VALID,13,VALID,0.1875,
2004-05-29, 01:39:00,VALID,917.54,VALID,0,VALID,98.6727,VALID,-0.0169808,VALID,19.0486,VALID,13,VALID,0.102242,
2004-05-29, 01:40:00,VALID,917.538,VALID,0,VALID,98.8139,VALID,0,VALID,19.0324,VALID,13,VALID,0.20585,
2004-05-29, 01:41:00,VALID,917.542,VALID,0,VALID,98.8431,VALID,0,VALID,19.0264,VALID,11,VALID,0.305233,
2004-05-29, 01:42:00,VALID,917.543,VALID,0,VALID,98.8901,VALID,0.0169808,VALID,19.0133,VALID,236,VALID,0.531977,
2004-05-29, 01:43:00,VALID,917.53,VALID,0,VALID,99.1318,VALID,0,VALID,19.023,VALID,220,VALID,0.216992,
2004-05-29, 01:44:00,VALID,917.521,VALID,0,VALID,99.4268,VALID,0,VALID,19.0486,VALID,218,VALID,0.446429,
2004-05-29, 01:45:00,VALID,917.491,VALID,0,VALID,99.5933,VALID,0,VALID,19.094,VALID,217,VALID,0.270198,
2004-05-29, 01:46:00,VALID,917.456,VALID,0,VALID,99.6328,VALID,0,VALID,19.13,VALID,217,VALID,0.217014,
2004-05-29, 01:47:00,VALID,917.43,VALID,0,VALID,99.6137,VALID,0,VALID,19.1588,VALID,217,VALID,0.135356,
2004-05-29, 01:48:00,VALID,917.413,VALID,0,VALID,99.5844,VALID,-0.0169808,VALID,19.172,VALID,217,VALID,0.00181686,
2004-05-29, 01:49:00,VALID,917.38,VALID,0,VALID,99.5056,VALID,-0.0339617,VALID,19.1749,VALID,217,VALID,0,
2004-05-29, 01:50:00,VALID,917.362,VALID,0,VALID,99.3377,VALID,-0.101885,VALID,19.1565,VALID,217,VALID,0,
2004-05-29, 01:51:00,VALID,917.348,VALID,0,VALID,99.2004,VALID,-0.0849042,VALID,19.1536,VALID,217,VALID,0,
2004-05-29, 01:52:00,VALID,917.333,VALID,0,VALID,99.1445,VALID,-0.118866,VALID,19.1213,VALID,217,VALID,0,
2004-05-29, 01:53:00,VALID,917.308,VALID,0,VALID,99.278,VALID,-0.101885,VALID,19.124,VALID,217,VALID,0.0745908,
2004-05-29, 01:54:00,VALID,917.296,VALID,0,VALID,99.3327,VALID,-0.101885,VALID,19.1245,VALID,217,VALID,0.223772,
2004-05-29, 01:55:00,VALID,917.282,VALID,0,VALID,99.3988,VALID,-0.101885,VALID,19.1379,VALID,213,VALID,0.359738,
2004-05-29, 01:56:00,VALID,917.274,VALID,0,VALID,99.325,VALID,-0.118866,VALID,19.1213,VALID,187,VALID,0.441034,
2004-05-29, 01:57:00,VALID,917.271,VALID,0,VALID,99.3886,VALID,-0.118866,VALID,19.1215,VALID,174,VALID,0.442765,
2004-05-29, 01:58:00,VALID,917.253,VALID,0,VALID,99.3352,VALID,-0.101885,VALID,19.1155,VALID,144,VALID,0.217773,
2004-05-29, 01:59:00,VALID,917.262,VALID,0,VALID,99.3085,VALID,-0.135847,VALID,19.0994,VALID,143,VALID,0.196265,
2004-05-29, 02:00:00,VALID,917.271,VALID,0,VALID,99.2437,VALID,-0.101885,VALID,19.0696,VALID,144,VALID,0.198509,
2004-05-29, 02:01:00,VALID,917.271,VALID,0,VALID,99.3136,VALID,-0.101885,VALID,19.0765,VALID,144,VALID,0.0745046,
2004-05-29, 02:02:00,VALID,917.283,VALID,0,VALID,99.2932,VALID,-0.101885,VALID,19.0696,VALID,143,VALID,0.0553819,
2004-05-29, 02:03:00,VALID,917.283,VALID,0,VALID,99.278,VALID,-0.118866,VALID,19.0602,VALID,143,VALID,0.14098,
2004-05-29, 02:04:00,VALID,917.3,VALID,0,VALID,98.7197,VALID,-0.135847,VALID,19.0083,VALID,126,VALID,0.399962,
2004-05-29, 02:05:00,VALID,917.316,VALID,0,VALID,98.5265,VALID,-0.0169808,VALID,18.9038,VALID,87,VALID,0.725836,
2004-05-29, 02:06:00,VALID,917.33,VALID,0,VALID,98.9677,VALID,-0.0509425,VALID,18.9008,VALID,94,VALID,0.657269,
2004-05-29, 02:07:00,VALID,917.33,VALID,0,VALID,98.9359,VALID,0,VALID,18.8779,VALID,135,VALID,0.513626,
2004-05-29, 02:08:00,VALID,917.348,VALID,0,VALID,99.203,VALID,0,VALID,18.865,VALID,155,VALID,0.613758,
2004-05-29, 02:09:00,VALID,917.354,VALID,0,VALID,99.5552,VALID,0,VALID,18.8971,VALID,163,VALID,0.771839,
2004-05-29, 02:10:00,VALID,917.37,VALID,0,VALID,99.8388,VALID,0,VALID,18.9586,VALID,174,VALID,0.955788,
2004-05-29, 02:11:00,VALID,917.369,VALID,0,VALID,99.9596,VALID,0.0169808,VALID,19.0041,VALID,179,VALID,0.583807,
2004-05-29, 02:12:00,VALID,917.363,VALID,0,VALID,99.9952,VALID,0,VALID,19.0329,VALID,193,VALID,0.50436,
2004-05-29, 02:13:00,VALID,917.36,VALID,0,VALID,100,VALID,0,VALID,19.0622,VALID,186,VALID,0.61849,
2004-05-29, 02:14:00,VALID,917.352,VALID,0,VALID,100,VALID,0,VALID,19.0682,VALID,181,VALID,0.704268,
2004-05-29, 02:15:00,VALID,917.362,VALID,0,VALID,100,VALID,0,VALID,19.0818,VALID,191,VALID,0.481326,
2004-05-29, 02:16:00,VALID,917.356,VALID,0,VALID,100,VALID,0,VALID,19.0975,VALID,195,VALID,0.372332,
2004-05-29, 02:17:00,VALID,917.367,VALID,0,VALID,100,VALID,0,VALID,19.1141,VALID,202,VALID,0.217634,
2004-05-29, 02:18:00,VALID,917.371,VALID,0,VALID,100,VALID,0,VALID,19.1201,VALID,189,VALID,0.320685,
2004-05-29, 02:19:00,VALID,917.38,VALID,0,VALID,100,VALID,0.0169808,VALID,19.1302,VALID,189,VALID,0.370458,
2004-05-29, 02:20:00,VALID,917.382,VALID,0,VALID,99.9278,VALID,0.0169808,VALID,19.1064,VALID,181,VALID,0.47017,
2004-05-29, 02:21:00,VALID,917.386,VALID,0,VALID,99.8769,VALID,0.0169808,VALID,19.0938,VALID,180,VALID,0.294876,
2004-05-29, 02:22:00,VALID,917.39,VALID,0,VALID,99.8909,VALID,0.0509425,VALID,19.0774,VALID,180,VALID,0.311806,
2004-05-29, 02:23:00,VALID,917.384,VALID,0,VALID,99.9176,VALID,0.0339617,VALID,19.0779,VALID,180,VALID,0.210938,
2004-05-29, 02:24:00,VALID,917.377,VALID,0,VALID,99.9405,VALID,0,VALID,19.1034,VALID,180,VALID,0.075,
2004-05-29, 02:25:00,VALID,917.353,VALID,0,VALID,99.9634,VALID,0.0339617,VALID,19.1104,VALID,180,VALID,0.0498512,
2004-05-29, 02:26:00,VALID,917.341,VALID,0,VALID,99.9908,VALID,0,VALID,19.126,VALID,180,VALID,0.143288,
2004-05-29, 02:27:00,VALID,917.316,VALID,0,VALID,100,VALID,0.0169808,VALID,19.1394,VALID,180,VALID,0.209263,
2004-05-29, 02:28:00,VALID,917.308,VALID,0,VALID,100,VALID,0.0339617,VALID,19.1486,VALID,180,VALID,0.11849,
2004-05-29, 02:29:00,VALID,917.299,VALID,0,VALID,100,VALID,-0.0169808,VALID,19.1722,VALID,179,VALID,0.409884,
2004-05-29, 02:30:00,VALID,917.295,VALID,0,VALID,100,VALID,0,VALID,19.1812,VALID,177,VALID,0.451562,
2004-05-29, 02:31:00,VALID,917.275,VALID,0,VALID,100,VALID,0.0169808,VALID,19.1807,VALID,177,VALID,0.564317,
2004-05-29, 02:32:00,VALID,917.276,VALID,0,VALID,100,VALID,0.0169808,VALID,19.2005,VALID,177,VALID,0.737571,
2004-05-29, 02:33:00,VALID,917.272,VALID,0,VALID,100,VALID,0.0339617,VALID,19.2199,VALID,178,VALID,0.352865,
2004-05-29, 02:34:00,VALID,917.28,VALID,0,VALID,100,VALID,0.0169808,VALID,19.2296,VALID,162,VALID,0.369992,
2004-05-29, 02:35:00,VALID,917.291,VALID,0,VALID,100,VALID,-0.0169808,VALID,19.2296,VALID,154,VALID,0.425781,
2004-05-29, 02:36:00,VALID,917.301,VALID,0,VALID,99.999,VALID,0.0339617,VALID,19.2358,VALID,145,VALID,0.682227,
2004-05-29, 02:37:00,VALID,917.316,VALID,0,VALID,100,VALID,0,VALID,19.2425,VALID,146,VALID,0.712754,
2004-05-29, 02:38:00,VALID,917.316,VALID,0,VALID,100,VALID,0.0169808,VALID,19.2651,VALID,123,VALID,0.638281,
2004-05-29, 02:39:00,VALID,917.329,VALID,0,VALID,100,VALID,0.0169808,VALID,19.2815,VALID,145,VALID,0.658067,
2004-05-29, 02:40:00,VALID,917.332,VALID,0,VALID,100,VALID,0.0169808,VALID,19.2907,VALID,135,VALID,0.350419,
2004-05-29, 02:41:00,VALID,917.346,VALID,0,VALID,100,VALID,0.0169808,VALID,19.2837,VALID,142,VALID,0.513263,
2004-05-29, 02:42:00,VALID,917.346,VALID,0,VALID,100,VALID,0.0169808,VALID,19.3165,VALID,150,VALID,0.40625,
2004-05-29, 02:43:00,VALID,917.368,VALID,0,VALID,99.9929,VALID,0,VALID,19.3292,VALID,150,VALID,0.582589,
2004-05-29, 02:44:00,VALID,917.377,VALID,0,VALID,99.9647,VALID,0,VALID,19.3456,VALID,156,VALID,0.640625,
2004-05-29, 02:45:00,VALID,917.384,VALID,0,VALID,99.9214,VALID,0.0509425,VALID,19.3486,VALID,158,VALID,0.621094,
2004-05-29, 02:46:00,VALID,917.38,VALID,0,VALID,99.9087,VALID,0.0169808,VALID,19.3553,VALID,154,VALID,0.470567,
2004-05-29, 02:47:00,VALID,917.376,VALID,0,VALID,99.8998,VALID,0,VALID,19.3612,VALID,154,VALID,0.301067,
2004-05-29, 02:48:00,VALID,917.376,VALID,0,VALID,99.9011,VALID,0.0509425,VALID,19.3836,VALID,161,VALID,0.296074,
2004-05-29, 02:49:00,VALID,917.364,VALID,0,VALID,99.8019,VALID,0.0339617,VALID,19.3905,VALID,145,VALID,0.705382,
2004-05-29, 02:50:00,VALID,917.361,VALID,0,VALID,99.7269,VALID,0.0509425,VALID,19.3737,VALID,142,VALID,0.677827,
2004-05-29, 02:51:00,VALID,917.374,VALID,0,VALID,99.7332,VALID,0.0169808,VALID,19.3781,VALID,151,VALID,0.504514,
2004-05-29, 02:52:00,VALID,917.362,VALID,0,VALID,99.7002,VALID,0,VALID,19.3615,VALID,140,VALID,0.637649,
2004-05-29, 02:53:00,VALID,917.354,VALID,0,VALID,99.676,VALID,0.0169808,VALID,19.3545,VALID,136,VALID,0.726215,
2004-05-29, 02:54:00,VALID,917.339,VALID,0,VALID,99.7141,VALID,0.0169808,VALID,19.3317,VALID,130,VALID,0.513139,
2004-05-29, 02:55:00,VALID,917.332,VALID,0,VALID,99.7574,VALID,0.0339617,VALID,19.3352,VALID,141,VALID,0.540396,
2004-05-29, 02:56:00,VALID,917.313,VALID,0,VALID,99.751,VALID,0.0339617,VALID,19.3354,VALID,118,VALID,0.649182,
2004-05-29, 02:57:00,VALID,917.301,VALID,0,VALID,99.7675,VALID,0.0339617,VALID,19.355,VALID,108,VALID,0.534624,
2004-05-29, 02:58:00,VALID,917.282,VALID,0,VALID,99.6785,VALID,0.0339617,VALID,19.3448,VALID,96,VALID,0.703125,
2004-05-29, 02:59:00,VALID,917.268,VALID,0,VALID,99.6493,VALID,0.0169808,VALID,19.3582,VALID,88,VALID,0.361861,
2004-05-29, 03:00:00,VALID,917.248,VALID,0,VALID,99.6366,VALID,0.0169808,VALID,19.3679,VALID,83,VALID,0.662157,
2004-05-29, 03:01:00,VALID,917.233,VALID,0,VALID,99.5679,VALID,0.0169808,VALID,19.3801,VALID,61,VALID,0.886111,
2004-05-29, 03:02:00,VALID,917.218,VALID,0,VALID,99.5209,VALID,0,VALID,19.4097,VALID,62,VALID,0.788132,
2004-05-29, 03:03:00,VALID,917.205,VALID,0,VALID,99.4051,VALID,0.0169808,VALID,19.4258,VALID,69,VALID,0.585193,
2004-05-29, 03:04:00,VALID,917.182,VALID,0,VALID,99.3377,VALID,0.0339617,VALID,19.4325,VALID,68,VALID,0.522485,
2004-05-29, 03:05:00,VALID,917.161,VALID,0,VALID,99.3416,VALID,0,VALID,19.4419,VALID,32,VALID,0.724306,
2004-05-29, 03:06:00,VALID,917.129,VALID,0,VALID,99.2742,VALID,0.0339617,VALID,19.4484,VALID,9,VALID,1.21738,
2004-05-29, 03:07:00,VALID,917.098,VALID,0,VALID,99.1712,VALID,0.0339617,VALID,19.4283,VALID,4,VALID,1.16484,
2004-05-29, 03:08:00,VALID,917.063,VALID,0,VALID,99.1826,VALID,0.0679233,VALID,19.4258,VALID,14,VALID,1.01124,
2004-05-29, 03:09:00,VALID,917.034,VALID,0,VALID,99.2767,VALID,0,VALID,19.4226,VALID,28,VALID,0.737645,
2004-05-29, 03:10:00,VALID,917.007,VALID,0,VALID,99.1712,VALID,0.0169808,VALID,19.4022,VALID,34,VALID,0.919792,
2004-05-29, 03:11:00,VALID,916.982,VALID,0,VALID,99.1089,VALID,0.0339617,VALID,19.3903,VALID,60,VALID,1.17369,
2004-05-29, 03:12:00,VALID,916.972,VALID,0,VALID,99.1559,VALID,0.0679233,VALID,19.3543,VALID,60,VALID,1.15781,
2004-05-29, 03:13:00,VALID,916.964,VALID,0,VALID,99.2411,VALID,0.0339617,VALID,19.361,VALID,46,VALID,0.787287,
2004-05-29, 03:14:00,VALID,916.952,VALID,0,VALID,99.353,VALID,0,VALID,19.355,VALID,38,VALID,0.851753,
2004-05-29, 03:15:00,VALID,916.956,VALID,0,VALID,99.4077,VALID,0.0509425,VALID,19.3578,VALID,47,VALID,0.695126,
2004-05-29, 03:16:00,VALID,916.942,VALID,0,VALID,99.3873,VALID,0.0509425,VALID,19.3444,VALID,61,VALID,0.904018,
2004-05-29, 03:17:00,VALID,916.938,VALID,0,VALID,99.395,VALID,0.0509425,VALID,19.3518,VALID,40,VALID,0.98609,
2004-05-29, 03:18:00,VALID,916.943,VALID,0,VALID,99.4051,VALID,0,VALID,19.3389,VALID,67,VALID,0.82648,
2004-05-29, 03:19:00,VALID,916.92,VALID,0,VALID,99.4229,VALID,0.0169808,VALID,19.3088,VALID,60,VALID,0.651526,
2004-05-29, 03:20:00,VALID,916.922,VALID,0,VALID,99.5272,VALID,0,VALID,19.3128,VALID,72,VALID,0.857337,
2004-05-29, 03:21:00,VALID,916.888,VALID,0,VALID,99.5234,VALID,0,VALID,19.2996,VALID,69,VALID,0.811955,
2004-05-29, 03:22:00,VALID,916.871,VALID,0,VALID,99.6391,VALID,0.0169808,VALID,19.2862,VALID,70,VALID,0.55564,
2004-05-29, 03:23:00,VALID,916.849,VALID,0,VALID,99.662,VALID,0.0169808,VALID,19.286,VALID,74,VALID,0.640067,
2004-05-29, 03:24:00,VALID,916.829,VALID,0,VALID,99.7319,VALID,0,VALID,19.2964,VALID,64,VALID,0.759588,
2004-05-29, 03:25:00,VALID,916.813,VALID,0,VALID,99.6976,VALID,0.0339617,VALID,19.2959,VALID,71,VALID,0.696075,
2004-05-29, 03:26:00,VALID,916.816,VALID,0,VALID,99.7625,VALID,0,VALID,19.3059,VALID,74,VALID,0.381904,
2004-05-29, 03:27:00,VALID,916.799,VALID,0,VALID,99.737,VALID,0,VALID,19.3155,VALID,108,VALID,0.490854,
2004-05-29, 03:28:00,VALID,916.814,VALID,0,VALID,99.7358,VALID,0.0169808,VALID,19.3218,VALID,108,VALID,0.428445,
2004-05-29, 03:29:00,VALID,916.815,VALID,0,VALID,99.7447,VALID,0,VALID,19.3419,VALID,139,VALID,0.590892,
2004-05-29, 03:30:00,VALID,916.827,VALID,0,VALID,99.7383,VALID,0,VALID,19.3379,VALID,133,VALID,0.537729,
2004-05-29, 03:31:00,VALID,916.837,VALID,0,VALID,99.6773,VALID,0,VALID,19.3419,VALID,138,VALID,0.818132,
2004-05-29, 03:32:00,VALID,916.864,VALID,0,VALID,99.6709,VALID,0.0169808,VALID,19.3384,VALID,150,VALID,0.883384,
2004-05-29, 03:33:00,VALID,916.873,VALID,0,VALID,99.6582,VALID,0,VALID,19.3193,VALID,159,VALID,1.22691,
2004-05-29, 03:34:00,VALID,916.885,VALID,0,VALID,99.6925,VALID,0,VALID,19.2996,VALID,137,VALID,0.995236,
2004-05-29, 03:35:00,VALID,916.895,VALID,0,VALID,99.7472,VALID,0,VALID,19.283,VALID,136,VALID,1.00335,